CAPE
0 0 0 0 0 0 0 0 0 0 0 0 0 0 0 0 0 0 0 0 0 0 0 0 0 0 0 0 0 0 0 0 0 0 0 0 0 0 0 0 0 0 0
0 0 0 0 0 0 0 0 0 0 0 0 0 0 0 0 0 0 0 0 0 0 0 0 0 0 0 0 0 0 0 0 0 0 0 0 0 0 0 0 0 0 0
0 0 0 0 0 0 0 0 0 0 0 0 0 0 0 0 0 0 0 0 0 0 0 0 0 0 0 0 0 0 0 0 0 0 0 0 0 0 0 0 0 0 0
0 0 0 0 0 0 0 0 0 0 0 0 0 0 0 0 0 0 0 0 0 0 0 0 0 0 0 0 0 0 1 0 0 0 0 0 0 0 0 0 0 0 0
0 0 0 0 0 0 0 0 0 0 0 0 0 0 0 0 0 0 0 0 0 0 0 0 0 0 0 0 1 0 0 0 1 0 1 1 1 0 0 0 0 0 0
0 0 0 0 0 0 0 0 0 0 0 0 0 0 0 0 0 0 0 0 0 0 0 0 0 0 0 0 0 0 1 0 0 2 8 4 3 1 0 0 0 0 0
0 0 0 0 0 0 0 0 0 0 0 0 0 0 0 0 0 0 0 0 0 1 0 0 0 0 0 0 0 0 0 0 1 0 0 0 1 0 0 3 7 0 0
0 0 0 0 0 0 0 0 0 0 0 0 0 0 0 0 0 0 0 0 0 0 0 0 0 0 0 0 0 0 0 0 0 0 0 0 0 0 0 0 0 0 0
0 0 0 0 0 0 0 0 0 0 0 0 0 0 0 0 0 0 0 0 1 0 0 0 0 0 0 0 0 0 0 0 0 0 0 1 5 6 8 1 0 10 2
0 0 0 0 0 0 0 0 0 0 0 0 0 0 0 0 0 0 0 0 0 0 0 0 0 0 1 2 1 0 0 0 0 0 0 0 0 0 0 0 0 0 0
0 0 0 0 0 0 0 0 0 0 0 0 0 0 0 0 0 0 0 0 0 0 0 0 0 0 1 3 5 0 0 0 0 0 0 0 0 0 0 0 0 0 1
0 0 0 0 0 0 0 0 0 0 0 0 0 0 0 0 0 0 0 0 0 0 0 0 0 0 3 18 26 22 33 23 0 0 0 0 0 0 0 0 0 3 6
0 0 0 0 0 0 0 0 0 0 0 0 0 0 0 0 0 0 0 0 1 2 0 1 5 5 12 8 1 3 6 1 0 0 0 0 0 0 0 0 0 0 0
0 0 0 0 0 0 0 0 0 0 0 0 0 0 0 0 0 0 0 0 0 0 1 1 0 0 0 0 0 0 0 0 0 0 0 0 0 0 0 0 0 0 0
0 0 0 0 0 0 0 0 0 0 0 0 0 0 0 0 0 2 5 0 2 4 0 0 0 0 0 0 0 0 0 0 0 0 0 0 0 0 0 0 0 1 0
0 0 0 0 0 0 0 0 0 0 0 0 0 1 0 0 1 2 6 2 2 0 0 0 0 0 0 0 0 0 0 0 0 0 0 0 0 0 0 0 0 0 0
0 0 0 0 0 0 0 0 0 0 0 0 0 0 0 2 1 4 1 1 0 0 0 0 0 0 0 0 0 0 0 0 0 0 0 0 0 0 0 0 0 0 0
0 0 0 0 0 0 0 0 0 0 0 0 0 0 0 0 0 1 1 0 0 0 0 0 0 0 0 0 0 0 0 0 0 0 0 0 0 0 0 0 0 0 0
0 0 0 0 0 0 0 0 0 0 0 0 0 0 0 0 0 0 0 0 0 0 0 0 0 0 0 0 0 0 0 0 0 0 0 0 0 0 0 0 0 0 0
0 0 0 0 0 0 0 0 0 0 0 0 0 0 0 0 0 0 0 0 0 0 0 0 0 0 0 0 0 0 0 0 0 0 0 0 0 0 0 0 0 0 0
0 0 0 0 0 0 0 0 0 0 0 0 0 0 0 0 0 0 0 0 0 0 0 0 0 0 0 0 0 0 0 0 0 0 0 0 0 0 0 0 0 0 0
0 0 0 0 0 0 0 0 0 0 0 0 0 0 0 0 0 0 0 0 0 0 0 0 0 0 0 0 0 0 0 0 0 0 0 0 0 0 0 0 0 0 0
0 0 0 0 0 0 0 0 0 0 0 0 0 0 0 0 0 0 0 0 0 0 0 0 0 0 0 0 0 0 0 0 0 0 0 0 0 0 0 0 0 0 0
0 0 0 0 0 0 0 0 0 0 0 0 0 0 0 0 0 0 0 0 0 0 0 0 0 0 0 0 0 0 0 0 0 0 0 0 0 0 0 0 0 0 0
0 0 0 0 0 0 0 0 0 0 0 0 0 0 0 0 0 0 0 0 0 0 0 0 0 0 0 0 0 0 0 0 0 0 0 0 0 0 0 0 0 0 0
0 0 0 0 0 0 0 0 0 0 0 0 0 0 0 0 0 0 0 0 0 0 0 0 0 0 0 0 0 0 0 0 0 0 0 0 0 0 0 0 0 0 0
CIN
-0 -0 -0 -0 -0 -0 -0 -0 -0 -0 -0 -0 -0 -0 -0 -0 -0 -0 -0 -0 -0 -0 -0 -0 -0 -0 -0 -0 -0 -0 -0 -0 -0 -0 -0 -0 -0 -0 -0 -0 -0 -0 -0
-0 -0 -0 -0 -0 -0 -0 -0 -0 -0 -0 -0 -0 -0 -0 -0 -0 -0 -0 -0 -0 -0 -0 -0 -0 -0 -0 -0 -0 -0 -0 -0 -0 -0 -0 -0 -0 -0 -0 -0 -0 -0 -0
-0 -0 -0 -0 -0 -0 -0 -0 -0 -0 -0 -0 -0 -0 -0 -0 -0 -0 -0 -0 -0 -0 -0 -0 -0 -0 -0 -0 -0 -0 -0 -0 -0 -0 -0 -0 -0 -0 -0 -0 -0 -0 -0
-0 -0 -0 -0 -0 -0 -0 -0 -0 -0 -0 -0 -0 -0 -0 -0 -0 -0 -0 -0 -0 -0 -0 -0 -0 -0 -0 -0 -0 -0 -0 -0 -0 -0 -0 -0 -0 -0 -0 -0 -0 -0 -0
-0 -0 -0 -0 -0 -0 -0 -0 -0 -0 -0 -0 -0 -0 -0 -0 -0 -0 -0 -0 -0 -0 -0 -0 -0 -0 -0 -0 -0 -0 -1 -1 -1 -1 -1 -1 -0 -0 -0 -0 -0 -0 -0
-0 -0 -0 -0 -0 -0 -0 -0 -0 -0 -0 -0 -0 -0 -0 -0 -0 -0 -0 -0 -0 -0 -0 -0 -0 -0 -0 -0 -0 -0 -3 -0 -0 -3 -0 -1 -1 -1 -2 -0 -0 -0 -0
-0 -0 -0 -0 -0 -0 -0 -0 -0 -0 -0 -0 -0 -0 -0 -0 -0 -0 -0 -0 -0 -0 -0 -0 -0 -0 -0 -0 -0 -0 -0 -0 -2 -0 -2 -0 -1 -3 -4 -1 -0 -0 -0
-0 -0 -0 -0 -0 -0 -0 -0 -0 -0 -0 -0 -0 -0 -0 -0 -0 -0 -0 -0 -0 -0 -0 -0 -0 -0 -0 -0 -0 -0 -0 -0 -0 -0 -0 -0 -0 -0 -0 -0 -0 -0 -0
-0 -0 -0 -0 -0 -0 -0 -0 -0 -0 -0 -0 -0 -0 -0 -0 -0 -0 -0 -0 -0 -0 -0 -0 -0 -0 -0 -3 -4 -3 -0 -0 -0 -0 -0 -2 -3 -1 -2 -3 -3 -0 -2
-0 -0 -0 -0 -0 -0 -0 -0 -0 -0 -0 -0 -0 -0 -0 -0 -0 -0 -0 -1 -0 -0 -0 -0 -0 -1 -4 -5 -5 -0 -0 -0 -0 -0 -0 -0 -0 -0 -0 -0 -0 -1 -0
-0 -0 -0 -0 -0 -0 -0 -0 -0 -0 -0 -0 -0 -0 -0 -0 -0 -0 -0 -1 -0 -0 -0 -0 -0 -0 -2 -5 -5 -0 -0 -2 -0 -0 -0 -0 -0 -0 -0 -0 -0 -0 -1
-0 -0 -0 -0 -0 -0 -0 -0 -0 -0 -0 -0 -0 -0 -0 -0 -0 -0 -0 -1 -2 -1 -0 -0 -0 -1 -2 -0 -1 -1 -0 -4 -0 -0 -0 -0 -0 -0 -0 -0 -0 -0 -0
-0 -0 -0 -0 -0 -0 -0 -0 -0 -0 -0 -0 -0 -0 -0 -0 -0 -0 -0 -0 -2 -4 -0 -5 -5 -3 -3 -1 -0 -1 -2 -6 -0 -0 -0 -0 -0 -0 -0 -0 -0 -0 -0
-0 -0 -0 -0 -0 -0 -0 -0 -0 -0 -0 -0 -0 -0 -0 -0 -0 -0 -0 -0 -2 -0 -5 -5 -0 -0 -0 -0 -0 -0 -0 -0 -0 -0 -0 -0 -0 -0 -0 -0 -0 -0 -0
-0 -0 -0 -0 -0 -0 -0 -0 -0 -0 -0 -0 -0 -0 -0 -0 -0 -1 -2 -2 -4 -2 -0 -0 -0 -0 -0 -0 -0 -0 -0 -0 -0 -0 -0 -0 -0 -0 -0 -0 -1 -2 -1
-0 -0 -0 -0 -0 -0 -0 -0 -0 -0 -0 -0 -0 -1 -0 -1 -2 -2 -3 -2 -2 -0 -0 -0 -0 -0 -0 -0 -0 -0 -0 -0 -0 -0 -0 -0 -0 -0 -0 -0 -0 -0 -0
-0 -0 -0 -0 -0 -0 -0 -0 -0 -0 -0 -0 -0 -0 -0 -1 -1 -2 -2 -1 -0 -0 -0 -0 -0 -0 -0 -0 -0 -0 -0 -0 -0 -0 -0 -0 -0 -0 -0 -0 -0 -0 -0
-0 -0 -0 -0 -0 -0 -0 -0 -0 -0 -0 -0 -0 -0 -0 -0 -0 -1 -0 -0 -0 -0 -0 -0 -0 -0 -0 -0 -0 -0 -0 -0 -0 -0 -0 -0 -0 -0 -0 -0 -0 -0 -0
-0 -0 -0 -0 -0 -0 -0 -0 -0 -0 -0 -0 -0 -0 -0 -0 -0 -0 -0 -0 -0 -0 -0 -0 -0 -0 -0 -0 -0 -0 -0 -0 -0 -0 -0 -0 -0 -0 -0 -0 -0 -0 -0
-0 -0 -0 -0 -0 -0 -0 -0 -0 -0 -0 -0 -0 -0 -0 -0 -0 -0 -0 -0 -0 -0 -0 -0 -0 -0 -0 -0 -0 -0 -0 -0 -0 -0 -0 -0 -0 -0 -0 -0 -0 -0 -0
-0 -0 -0 -0 -0 -0 -0 -0 -0 -0 -0 -0 -0 -0 -1 -0 -0 -0 -0 -0 -0 -0 -0 -0 -0 -0 -0 -0 -0 -0 -0 -0 -0 -0 -0 -0 -0 -0 -0 -0 -0 -0 -0
-0 -0 -0 -0 -0 -0 -0 -0 -0 -0 -0 -0 -0 -0 -0 -0 -0 -0 -0 -0 -0 -0 -0 -0 -0 -0 -0 -0 -0 -0 -0 -0 -0 -0 -0 -0 -0 -0 -0 -0 -0 -0 -0
-0 -0 -0 -0 -0 -0 -0 -0 -0 -0 -0 -0 -0 -0 -0 -0 -0 -0 -0 -0 -0 -0 -0 -0 -0 -0 -0 -0 -0 -0 -0 -0 -0 -0 -0 -0 -0 -0 -0 -0 -0 -0 -0
-0 -0 -0 -0 -0 -0 -0 -0 -0 -0 -0 -0 -0 -0 -0 -0 -0 -0 -0 -0 -0 -0 -0 -0 -0 -0 -0 -0 -0 -0 -0 -0 -0 -0 -0 -0 -0 -0 -0 -0 -0 -0 -0
-0 -0 -0 -0 -0 -0 -0 -0 -0 -0 -0 -0 -0 -0 -0 -0 -0 -0 -0 -0 -0 -0 -0 -0 -0 -0 -0 -0 -0 -0 -0 -0 -0 -0 -0 -0 -0 -0 -0 -0 -0 -0 -0
-0 -0 -0 -0 -0 -0 -0 -0 -0 -0 -0 -0 -0 -0 -0 -0 -0 -0 -0 -0 -0 -0 -0 -0 -0 -0 -0 -0 -0 -0 -0 -0 -0 -0 -0 -0 -0 -0 -0 -0 -0 -0 -0
Wind_Speed
23 25 26 28 30 31 33 34 35 36 38 39 41 42 44 45 46 47 48 49 52 52 50 50 52 50 50 48 48 49 51 51 60 59 53 50 49 49 47 46 46 46 46
24 25 27 29 30 32 34 35 36 38 39 40 42 43 44 46 47 49 52 51 52 53 53 53 54 52 53 51 52 53 53 53 58 65 59 55 53 48 48 48 47 45 46
24 25 27 28 31 33 34 35 37 39 40 41 42 45 46 47 48 49 50 51 52 53 54 55 55 55 56 54 54 55 55 54 55 60 64 56 55 50 50 48 47 47 45
25 26 28 29 31 34 35 37 39 40 41 42 43 44 45 47 49 48 51 53 54 54 54 54 55 55 56 56 56 56 55 56 56 59 61 61 58 53 51 55 55 47 48
25 26 28 29 31 33 36 38 39 39 41 42 43 44 45 47 47 51 52 53 54 55 54 54 53 53 56 56 57 57 57 58 58 59 61 60 60 57 58 53 56 52 50
26 27 28 29 32 35 37 38 39 40 40 41 43 45 47 47 50 51 52 53 53 54 55 53 52 52 52 53 55 57 57 58 59 58 60 61 61 58 55 56 57 57 61
25 27 28 30 32 34 36 37 39 40 41 42 43 45 48 48 50 52 52 51 51 51 51 52 52 49 50 50 51 52 53 54 56 58 61 60 61 58 57 59 58 58 61
27 27 27 29 31 34 36 38 39 40 41 43 44 45 46 48 51 51 51 49 48 47 47 47 48 49 47 48 49 49 48 47 47 49 53 58 58 58 58 61 62 64 63
26 27 26 28 31 34 37 38 38 40 41 42 42 45 48 49 49 50 49 47 47 46 44 43 43 45 45 45 45 46 44 43 43 46 50 52 53 55 55 56 60 61 67
24 24 24 27 31 34 36 37 36 38 40 41 43 43 45 48 48 48 47 45 47 45 43 42 41 42 43 44 43 43 45 44 42 43 43 45 46 47 49 50 54 62 66
22 23 25 28 31 34 35 35 37 39 40 41 43 44 44 44 46 46 45 44 44 45 44 44 41 43 45 45 43 40 41 42 43 44 46 45 43 45 47 46 49 54 60
22 24 26 29 32 34 35 36 37 38 41 42 44 46 42 42 43 43 44 45 47 47 48 47 45 45 44 44 44 42 44 47 45 46 49 50 51 51 50 50 51 53 56
23 25 28 30 32 33 35 36 37 37 39 42 43 45 46 43 41 41 45 46 48 47 44 46 53 52 50 46 43 44 42 40 42 43 46 48 48 49 50 52 52 54 56
25 27 29 32 33 33 32 33 35 36 38 39 41 44 45 44 43 44 45 44 46 46 45 42 45 47 45 41 39 38 38 39 41 43 46 48 48 48 50 49 53 53 54
26 29 31 33 33 34 33 32 33 32 33 37 39 40 44 45 43 47 48 47 47 47 49 46 45 42 40 39 39 38 39 39 40 41 42 45 46 46 47 44 46 48 50
29 30 32 32 32 32 32 33 29 31 32 33 35 37 38 40 44 45 46 46 46 47 43 44 44 42 41 41 42 42 41 41 41 42 43 42 40 40 38 37 37 39 44
28 29 30 30 30 30 31 32 37 34 33 31 33 37 38 39 42 43 43 43 43 41 42 42 42 41 41 41 40 40 41 42 42 42 41 38 34 31 31 32 36 38 38
27 28 29 29 29 29 30 32 34 37 39 37 33 36 36 39 40 40 40 40 40 39 39 41 41 41 40 40 39 39 40 41 41 41 40 32 27 28 31 33 35 38 32
28 29 28 29 29 29 30 31 33 34 36 37 37 34 36 37 36 36 35 36 39 40 40 40 39 39 39 38 38 39 38 38 37 38 40 34 30 31 32 35 38 38 37
29 29 29 29 29 29 30 32 33 34 34 34 35 38 36 34 36 35 35 35 35 35 36 37 38 37 37 39 41 40 38 36 33 35 39 39 37 35 33 33 34 37 36
30 30 29 28 28 28 30 31 32 31 30 31 37 35 36 34 35 33 33 33 34 34 34 35 35 36 38 40 41 40 33 28 29 33 38 40 39 38 37 36 34 30 32
29 29 29 29 29 29 30 30 30 29 28 36 36 35 34 32 32 32 32 32 31 29 28 29 29 30 33 40 42 41 37 35 31 32 36 38 38 37 36 34 32 30 26
30 31 32 32 31 31 30 29 28 26 34 36 35 35 34 33 32 31 29 28 28 27 25 25 24 26 28 28 37 39 40 39 33 30 33 33 35 35 33 31 29 26 24
35 35 35 35 34 32 31 30 28 31 37 36 35 35 35 33 32 26 24 24 25 24 22 21 21 18 23 27 25 30 40 34 35 33 33 28 31 32 30 28 26 23 21
33 33 33 33 33 32 33 32 31 37 36 35 35 35 34 33 29 25 23 19 20 22 22 23 22 22 21 17 21 18 22 29 37 37 35 30 28 30 28 26 24 21 19
31 30 30 29 30 32 32 32 37 35 35 35 34 34 33 33 27 22 22 21 21 21 22 22 26 29 30 28 24 9 33 26 36 37 34 32 31 29 28 26 24 22 20
Wind_Direction
322 324 327 329 331 332 332 332 332 330 330 328 327 325 324 322 321 318 316 314 310 308 308 305 302 302 300 299 298 294 291 289 285 286 289 291 289 288 289 288 285 282 281
319 322 324 327 330 330 330 331 331 329 329 327 326 325 323 322 321 317 314 313 310 308 306 304 301 301 298 298 294 292 290 288 286 284 286 288 287 289 288 287 286 285 282
317 320 324 325 327 328 330 330 330 328 327 327 326 324 323 322 320 318 316 313 311 309 306 304 302 300 297 295 294 291 290 288 287 284 283 286 286 287 287 287 286 285 284
313 316 319 322 325 326 326 327 326 326 325 325 325 324 324 323 321 319 317 314 312 309 307 305 302 300 297 295 293 291 290 288 286 284 283 283 283 285 285 283 283 284 283
309 312 314 318 322 324 325 326 326 326 326 326 325 325 325 324 323 320 318 315 313 310 309 307 304 301 298 295 293 291 289 287 285 284 283 282 282 282 280 282 281 282 281
304 307 313 317 320 323 324 325 325 326 326 326 326 325 325 325 324 322 320 317 315 313 310 309 307 305 302 298 294 291 288 286 284 283 282 281 280 281 282 280 279 279 277
303 307 311 315 318 321 324 325 325 325 326 325 326 326 325 326 325 323 321 319 317 315 313 311 309 308 305 302 299 295 292 288 285 284 282 281 281 282 282 280 278 276 275
302 306 310 313 317 321 323 324 324 325 325 325 326 327 327 328 327 325 323 321 319 318 317 315 312 310 308 305 302 299 296 294 291 287 284 283 283 283 281 279 278 277 275
300 303 308 314 317 320 321 323 324 324 325 326 328 328 327 328 329 327 324 323 321 320 320 319 316 313 310 307 304 301 300 299 297 293 289 288 287 286 284 282 277 276 273
302 306 311 315 318 320 321 322 324 325 325 326 327 329 329 329 330 327 325 324 322 322 321 320 319 316 311 307 306 304 300 301 301 299 296 293 292 290 287 283 282 276 273
307 309 311 316 318 320 321 322 323 323 324 326 327 329 330 331 330 329 327 325 323 322 321 319 320 316 309 307 306 306 304 305 303 300 298 296 295 294 292 289 285 279 275
308 309 312 315 318 319 319 320 322 323 323 325 327 329 332 333 332 330 328 325 321 319 316 315 315 314 312 310 308 307 305 304 305 303 300 297 296 294 292 289 287 282 277
309 309 312 316 317 319 319 319 321 323 324 326 328 329 330 333 333 331 325 322 320 321 322 319 307 306 307 311 312 310 310 310 308 306 304 302 300 298 295 292 287 285 281
308 310 313 315 316 318 319 320 320 322 324 326 328 329 330 331 331 327 326 327 324 323 325 326 322 318 317 319 320 320 319 317 314 310 308 306 304 302 298 295 289 286 281
309 311 313 315 316 316 318 320 321 323 325 326 328 329 329 329 328 319 319 320 322 323 320 324 324 325 324 322 322 323 323 322 321 319 315 312 308 306 303 298 292 288 281
308 310 312 314 316 317 318 320 324 325 326 327 329 330 331 329 318 318 320 323 326 327 331 329 329 330 327 324 322 321 324 324 324 324 322 318 314 312 309 305 299 292 285
308 311 313 314 315 316 318 320 322 327 330 331 331 331 330 326 317 320 324 328 333 336 337 336 337 336 333 329 327 325 324 326 327 327 326 325 322 318 315 311 306 302 289
309 310 311 313 314 315 317 319 321 323 325 328 331 330 328 319 318 321 326 332 336 341 343 343 341 340 338 336 333 331 329 330 332 332 330 332 329 322 315 313 310 303 300
308 309 310 311 312 313 316 319 321 323 324 325 326 328 317 316 321 327 334 337 337 339 343 345 347 346 343 342 338 334 335 338 340 338 332 332 330 321 317 309 300 296 296
307 307 308 309 310 312 315 318 321 323 324 325 324 310 310 322 321 328 335 339 343 346 349 350 351 351 349 343 335 337 341 345 348 345 335 326 322 316 317 316 308 289 284
307 306 306 307 308 311 314 317 320 323 324 325 306 301 305 317 321 329 336 340 345 348 351 353 355 356 351 342 337 341 354 355 354 349 338 327 320 314 308 304 306 309 287
306 305 304 304 307 309 312 316 319 322 324 303 292 298 307 317 323 330 335 341 345 352 356 356 358 360 359 341 335 340 352 356 357 352 343 335 323 317 314 311 307 305 308
306 303 302 302 303 306 309 313 316 319 304 287 294 298 303 313 325 333 339 345 349 353 357 359 1 1 2 5 351 347 345 351 360 1 352 349 338 324 320 319 317 314 313
303 300 299 299 299 301 304 308 311 305 283 284 290 294 301 315 324 339 347 349 351 353 357 360 1 2 3 2 9 6 338 3 360 5 360 6 355 336 331 331 332 330 328
305 302 299 297 297 297 297 299 300 277 278 282 286 290 300 311 329 342 349 355 355 356 357 357 0 1 3 3 5 4 302 309 359 -0 2 14 16 355 348 346 346 347 347
309 303 301 301 297 292 290 290 272 271 273 279 283 288 298 307 333 347 351 354 356 357 357 358 356 353 354 358 4 331 313 306 358 356 7 10 18 20 5 2 360 358 354